Zurück zum Katalog

STARLINK-11737

AktivKommunikationVLEO
NORAD 64066·PAYLOAD·🇺🇸 United States

Gestartet May 21, 2025 von Cape Canaveral Space Force Station

Loading…

Nächste Überflüge (nächste 24 Stunden)

TLE

AktuellSource: CelesTrak SupGP

Epoche: Sep 15, 2026, 02:59 UTC

1 64066C 25107C   26258.12479167 -.00013564  00000+0 -10544-3 0  2582
2 64066  43.0013  36.3923 0001761 270.7010 359.6621 15.70823117    11

Verfolge STARLINK-11737 in Echtzeit mit AllMySat

Download on the App Store